Flag Weather past 2 weeks in Muktsar, Punjab, India

Now
81 °F

Haze.


Feels Like: 80 °F
Forecast: 64 / 87 °F
Wind: 6 mph from North

Location: Lahore Airport

Current Time: Oct 31, 2014 at 12:49:51 PM

Latest Report: Oct 31, 2014 at 12:25 PM


Visibility: 2 mi

Pressure: 30.04 "Hg

Humidity: 39%

Dew point: 54 °F

Location of MuktsarLocation

Historic Weather in Muktsar — Graph

°F

Muktsar temperature yesterday

Maximum temperature yesterday: 84 °F (at 2:25 PM)
Minimum temperature yesterday: 64 °F (at 7:25 AM)
Average temperature yesterday: 75 °F

Past Weeks' High & Low Weather Summary

 TemperatureHumidityPressure
High91 °F (Oct 21, 2:25 PM)100% (Oct 28, 9:00 AM)32.52 "Hg (Oct 28, 9:00 AM)
Low63 °F (Oct 29, 4:55 AM)29% (Oct 19, 2:30 PM)29.89 "Hg (Oct 19, 3:55 AM)
Average76 °F60%29.97 "Hg
* Reported Oct 16 11:29 AM — Oct 31 11:25 AM, Muktsar, Weather by CustomWeather, © 2014

Note: Actual official high and low records may vary slightly from our data, if they occured in-between our weather recording intervals... More about our weather records

Advertising

Muktsar weather history for previous 24 hours

 ConditionsComfort  
Time TempWeatherWind HumidityBarometerVisibility
11:25 AM
Oct 31
77 °FHaze.7 mph47%30.04 "Hg2 mi
10:25 AM75 °FClear.6 mph54%30.04 "Hg2 mi
9:55 AM73 °FClear.6 mph57%30.04 "Hg2 mi
9:25 AM72 °FClear.8 mph61%30.04 "Hg2 mi
8:55 AM70 °FClear.7 mph69%30.04 "Hg2 mi
8:25 AM68 °FClear.7 mph73%30.01 "Hg2 mi
7:55 AM66 °FClear.3 mph78%30.01 "Hg1 mi
7:25 AM66 °FFog.3 mph78%30.01 "Hg1 mi
7:00 AM64 °FFog.3 mph83%30.01 "Hg1 mi
6:30 AM64 °FFog.3 mph83%29.98 "Hg2 mi
5:29 AM64 °FClear.3 mph83%29.98 "Hg2 mi
5:00 AM66 °FClear.No wind78%29.98 "Hg2 mi
4:30 AM66 °FClear.3 mph78%29.95 "Hg2 mi
3:55 AM66 °FClear.3 mph78%29.95 "Hg2 mi
3:25 AM66 °FClear.3 mph83%29.98 "Hg2 mi
2:55 AM68 °FClear.3 mph73%29.98 "Hg2 mi
2:25 AM68 °FClear.No wind73%29.98 "Hg2 mi
1:55 AM68 °FClear.No wind73%29.98 "Hg2 mi
1:25 AM68 °FClear.No wind73%29.98 "Hg2 mi
12:55 AM70 °FClear.No wind69%29.98 "Hg2 mi
12:25 AM70 °FClear.No wind69%29.98 "Hg2 mi
11:55 PM
Oct 30
72 °FClear.No wind61%29.98 "Hg2 mi
11:25 PM72 °FClear.No wind65%29.98 "Hg2 mi
10:55 PM72 °FClear.No wind61%29.98 "Hg2 mi
10:25 PM72 °FClear.3 mph61%29.98 "Hg2 mi
9:55 PM73 °FPassing clouds.No wind57%29.98 "Hg2 mi
9:25 PM73 °FClear.3 mph57%29.98 "Hg2 mi
8:55 PM75 °FPassing clouds.3 mph54%29.98 "Hg2 mi
8:25 PM75 °FPassing clouds.3 mph54%29.98 "Hg2 mi
7:55 PM75 °FPassing clouds.3 mph54%29.95 "Hg2 mi
7:25 PM75 °FPassing clouds.3 mph54%29.95 "Hg2 mi
6:55 PM77 °FPassing clouds.5 mph51%29.95 "Hg2 mi
6:25 PM77 °FHaze.5 mph51%29.92 "Hg2 mi
6:00 PM79 °FWarm.13 mph45%29.92 "HgN/A
5:25 PM81 °FScattered clouds.6 mph42%29.92 "Hg2 mi
4:55 PM82 °FScattered clouds.6 mph37%29.92 "Hg2 mi
4:25 PM82 °FScattered clouds.7 mph40%29.92 "Hg2 mi
3:55 PM84 °FScattered clouds.7 mph37%29.92 "Hg2 mi
3:25 PM84 °FScattered clouds.7 mph37%29.92 "Hg2 mi
2:55 PM84 °FScattered clouds.7 mph40%29.92 "Hg2 mi
2:25 PM84 °FScattered clouds.7 mph40%29.92 "Hg2 mi
1:55 PM82 °FHaze.7 mph40%29.92 "Hg3 mi
1:25 PM82 °FHaze.7 mph40%29.95 "Hg3 mi
12:55 PM81 °FHaze.7 mph42%29.98 "Hg3 mi
12:25 PM81 °FHaze.7 mph42%29.98 "Hg3 mi
Weather by CustomWeather, © 2014

See weather overviewHow to use our weather pages